{"data":{"norad_id":57145,"epoch":"2026-09-20T10:09:26.788608Z","epoch_age_seconds":127540,"freshness":"FRESH","line1":"1 57145U 23090AW  26263.42322672  .00000349  00000+0  22216-4 0  9995","line2":"2 57145  43.0020 243.7326 0001598 285.8659  74.2016 15.27575915180136","mean_motion":15.27575915,"eccentricity":0.0001598,"inclination_deg":43.002,"raan_deg":243.7326,"arg_perigee_deg":285.8659,"mean_anomaly_deg":74.2016,"bstar":2.2216e-5,"rev_number":18013,"period_min":94.267000799106,"perigee_km":481.96490853366,"apogee_km":484.1577475193,"semimajor_km":6861.1983280265,"source":"CELESTRAK","updated_at":"2026-09-21T09:00:33.567166Z"}}